Time,B instrument,Bx,By,Bz,sigma B,Ion instrument,Status,Tp_par,Tp_perp,carrot,r_sun,clat,clong,earth_he_angle,n_p,vp_x,vp_y,vp_z,vth_p_par,vth_p_perp
1980-12-21 00:13:24,-1,nan,nan,nan,nan,1,3,nan,nan,1703,0.45103329,7.2172232,193.02689,253.76907,nan,279.153,24.6652,16.9619,nan,nan
1980-12-21 00:56:36,-1,nan,nan,nan,nan,1,3,nan,nan,1703,0.45142239,7.2178297,192.69728,253.83791,nan,279.965,-0.307912,10.6125,nan,nan
1980-12-21 01:39:48,-1,nan,nan,nan,nan,1,3,nan,nan,1703,0.45181155,7.2184105,192.37135,253.90651,nan,306.497,-19.9794,-47.0168,nan,nan
1980-12-21 02:23:00,-1,nan,nan,nan,nan,1,3,nan,nan,1703,0.45220977,7.2189837,192.04688,253.97656,nan,370.201,-58.1599,51.0281,nan,nan
1980-12-21 03:06:12,-1,nan,nan,nan,nan,1,3,nan,nan,1703,0.45259905,7.2195225,191.72066,254.04488,nan,365.356,-63.7919,58.2936,nan,nan
1980-12-21 03:18:04,-1,nan,nan,nan,nan,1,4,nan,nan,1703,0.45270771,7.2196655,191.6342,254.06389,nan,nan,nan,nan,nan,nan
1980-12-21 04:36:41,-1,nan,nan,nan,nan,1,4,nan,nan,1703,0.45341396,7.2205715,191.0388,254.18724,nan,nan,nan,nan,nan,nan
1980-12-21 04:38:02,1,24.18,5.06,-13.6,0.489898,1,1,96755.8,84176.1,1703,0.45343202,7.2205944,191.02634,254.1904,22.942,303.314,-25.5213,23.0765,39.9665,37.278
1980-12-21 04:39:07,1,24.3833,6.28333,-12.7333,0.779957,1,1,112177.0,84227.7,1703,0.45151386,7.2465715,190.46094,253.63281,22.8044,302.214,-12.1348,34.6472,43.0337,37.2894
1980-12-21 04:39:23,1,24.4,5.26,-13.2,1.43052,1,1,91361.5,85643.8,1703,0.45344108,7.2206049,191.01619,254.19197,21.5548,310.576,-14.4361,48.1034,38.8364,37.6016
1980-12-21 04:40:28,1,24.9,4.36,-12.64,0.780256,1,1,97181.9,85581.1,1703,0.45345014,7.2206163,191.00996,254.19356,22.1107,304.198,-16.6634,33.02,40.0544,37.5878
1980-12-21 04:41:49,1,24.64,3.72,-13.32,0.271293,1,1,102279.0,79943.8,1703,0.4534592,7.2206278,190.99982,254.19513,22.9689,302.942,-7.5746,37.9717,41.0914,36.3287
1980-12-21 04:43:10,1,25.0,3.76,-12.6,0.422374,1,1,99566.9,85209.0,1703,0.45347732,7.2206497,190.98735,254.19829,22.0922,302.694,-8.90067,36.0503,40.543,37.506
1980-12-21 04:44:31,1,24.6333,3.01667,-13.0,0.332081,1,1,115204.0,80196.2,1703,0.45348638,7.2206612,190.9772,254.19986,22.6173,303.56,-4.67528,38.845,43.6106,36.386
1980-12-21 04:45:52,1,24.62,2.24,-13.24,0.427083,1,1,89619.4,81619.6,1703,0.45349544,7.2206726,190.96707,254.20145,21.7965,303.823,-1.66945,36.6315,38.4644,36.7075
1980-12-21 04:47:13,1,24.62,2.24,-13.16,0.233238,1,1,133378.0,73130.5,1703,0.45351356,7.2206955,190.95851,254.20461,23.3997,300.568,-3.51732,39.0021,46.9245,34.7462
1980-12-21 04:48:34,1,24.84,2.74,-12.44,0.281425,1,1,92782.5,76638.3,1703,0.45352262,7.220706,190.94836,254.20618,21.9003,303.922,-5.78691,35.7619,39.1373,35.5698
1980-12-21 04:49:55,1,25.12,0.28,-12.04,0.263818,1,1,93704.4,81522.2,1703,0.45353168,7.2207174,190.93823,254.20776,22.3357,303.661,4.54818,33.6491,39.3313,36.6856
1980-12-21 04:51:16,1,25.24,0.5,-11.56,0.291204,1,1,90393.0,77343.1,1703,0.45354974,7.2207403,190.92575,254.21091,21.5453,301.028,1.43369,30.9675,38.63,35.7329
1980-12-21 04:52:37,1,25.5667,2.01667,-10.5333,0.652559,1,1,124169.0,79096.3,1703,0.4535588,7.2207508,190.91562,254.21249,24.632,298.822,-1.27864,27.1238,45.2757,36.1357
1980-12-21 04:53:58,1,25.64,1.9,-10.04,0.20199,1,1,91634.3,81981.7,1703,0.45356786,7.2207623,190.90547,254.21407,22.9453,301.0,-0.398888,27.2297,38.8944,36.7889
1980-12-21 04:55:19,1,25.42,-1.14,-10.08,0.711056,1,1,105416.0,91145.0,1703,0.45358598,7.2207851,190.89691,254.21722,24.2619,299.139,-0.752703,25.6753,41.7168,38.7904
1980-12-21 04:56:40,1,25.92,0.54,-8.76,0.581722,1,1,85509.7,89685.8,1703,0.45359504,7.2207956,190.88678,254.21881,23.4262,299.189,0.691875,21.8677,37.5721,38.4786
1980-12-21 04:58:01,1,25.38,4.82,-8.0,1.05413,1,1,55604.5,86911.7,1703,0.45361316,7.2208185,190.87822,254.22197,23.3456,290.361,-14.5489,24.2388,30.2979,37.8789
1980-12-21 04:59:22,1,24.48,3.76,-11.48,2.55687,1,1,56012.8,77917.4,1703,0.45362222,7.22083,190.86807,254.22354,23.1946,292.529,-31.4557,25.5466,30.409,35.8654
1980-12-21 05:00:43,1,24.4,7.73333,-9.8,1.4091,1,1,52068.3,70200.8,1703,0.45363128,7.2208414,190.85403,254.22513,20.9581,292.814,-36.243,32.1813,29.3187,34.0431
1980-12-21 05:02:04,1,26.2,3.28,-6.88,0.619032,1,1,43728.8,80640.4,1703,0.45364934,7.2208614,190.84546,254.22827,23.7113,284.903,-22.8174,14.191,26.8684,36.4867
1980-12-21 05:03:25,1,25.7,2.12,-8.16,3.26251,1,1,50090.8,69515.6,1703,0.4536584,7.2208719,190.83531,254.22984,18.2665,292.687,-16.8007,51.3087,28.7566,33.8765
1980-12-21 05:04:46,1,26.48,0.1,-4.68,0.339411,1,1,36974.8,76566.3,1703,0.45366746,7.2208824,190.82516,254.23141,23.4228,284.04,-0.517172,10.7968,24.7065,35.553
1980-12-21 05:06:07,1,26.2,1.46,-6.2,2.88,1,1,42908.0,75106.1,1703,0.45368558,7.2209034,190.81659,254.23456,22.4662,286.163,-6.50553,0.765176,26.615,35.2124
1980-12-21 05:07:28,1,26.52,2.16,-4.72,0.24,1,1,69888.4,89248.6,1703,0.45369464,7.2209139,190.80644,254.23613,24.2863,290.966,-4.51313,11.9892,33.9672,38.3847
1980-12-21 05:08:49,1,26.9,1.72,-4.32,0.274226,1,1,97487.6,83819.3,1703,0.4537037,7.2209244,190.79239,254.2377,26.0778,289.648,-7.19467,5.03902,40.1174,37.1989
1980-12-21 05:29:47,-1,nan,nan,nan,nan,1,3,nan,nan,1703,0.45389396,7.2211447,190.63402,254.27074,nan,283.913,-9.19089,10.9744,nan,nan
1980-12-21 05:31:08,1,27.05,3.625,-4.8,0.156125,1,1,67999.1,79939.9,1703,0.45391202,7.2211657,190.62544,254.27388,20.2065,294.782,-13.0232,13.2926,33.505,36.3278
1980-12-21 05:32:29,1,26.92,2.8,-4.4,0.44,1,1,75979.9,83753.8,1703,0.45392114,7.2211761,190.6153,254.27545,25.5244,282.888,-12.912,8.68312,35.4166,37.1843
1980-12-21 05:33:50,1,26.58,3.36,-5.12,1.32575,1,1,66032.1,76914.2,1703,0.4539302,7.2211866,190.60515,254.27702,24.1644,287.186,-2.13861,22.8593,33.0168,35.6337
1980-12-21 05:35:13,1,26.075,1.55,-6.3,0.359687,1,1,56998.4,64135.4,1703,0.45394826,7.2212076,190.59657,254.28017,21.6232,283.069,-7.11213,16.0912,30.6753,32.5392
1980-12-21 05:36:34,1,24.8,4.22,-9.8,1.47296,1,1,54466.4,86359.4,1703,0.45395732,7.2212181,190.58644,254.28175,23.9394,284.733,-9.50577,26.5116,29.9862,37.7583
1980-12-21 05:37:55,1,25.54,3.18,-8.12,1.13031,1,1,46105.2,66774.3,1703,0.45396638,7.2212286,190.57239,254.28333,21.2241,283.903,-11.7119,31.154,27.5888,33.2019
1980-12-21 05:39:16,1,26.35,1.7,-3.0,0.746659,1,1,43419.2,69837.9,1703,0.4539845,7.2212496,190.56381,254.28647,21.4796,281.347,-1.03393,17.0577,26.7731,33.955
1980-12-21 05:40:37,1,25.975,0.825,-5.95,1.6707,1,1,56921.0,72335.3,1703,0.45399356,7.2212601,190.55367,254.28804,23.6115,281.257,2.46927,7.48888,30.6545,34.5568
1980-12-21 05:41:58,1,25.94,1.72,-5.0,0.675278,1,1,41200.9,65544.8,1703,0.45400262,7.2212706,190.54352,254.28961,22.3756,280.409,-1.13592,13.0848,26.0802,32.8948
1980-12-21 05:43:19,1,26.275,0.925,-3.1,0.814709,1,1,58959.2,67722.9,1703,0.45402074,7.2212915,190.53494,254.29276,22.1663,282.491,-2.20959,12.6233,31.1985,33.4369
1980-12-21 05:44:40,1,25.7,-1.48,-3.68,0.975295,1,1,43065.7,65286.9,1703,0.4540298,7.221302,190.5248,254.29433,21.7425,282.122,-11.3803,8.4771,26.6639,32.83
1980-12-21 05:46:01,1,26.15,2.425,0.45,0.949671,1,1,45019.4,61100.7,1703,0.45404792,7.221323,190.51231,254.29747,20.8281,281.9,-14.535,-15.6864,27.262,31.76
1980-12-21 05:47:22,1,26.22,1.6,-1.64,0.43359,1,1,43181.9,60729.7,1703,0.45405698,7.2213335,190.50217,254.29904,22.1153,281.019,-5.21933,6.44966,26.6999,31.6635
1980-12-21 05:48:43,1,26.2,1.55,1.8,0.563471,1,1,35610.0,59697.5,1703,0.45406604,7.221344,190.49203,254.30063,21.2339,279.952,-5.01314,-11.3623,24.2462,31.3932
1980-12-21 05:50:04,1,26.0,1.875,-0.6,0.544862,1,1,36875.2,56793.8,1703,0.45408416,7.221365,190.48346,254.30377,20.7961,279.741,-11.6072,-5.44106,24.6732,30.6202
1980-12-21 05:51:25,1,26.25,-0.15,-0.9,1.06301,1,1,43484.7,54251.1,1703,0.45409322,7.2213755,190.47331,254.30534,20.9659,278.942,2.70211,2.23544,26.7933,29.9269
1980-12-21 05:52:46,1,25.68,0.48,1.36,1.72905,1,1,40730.8,58890.6,1703,0.45410228,7.221386,190.46317,254.30692,20.042,280.067,-12.5197,-4.64213,25.931,31.1803
1980-12-21 05:54:07,1,25.38,5.2,2.16,1.54013,1,1,37256.6,61406.1,1703,0.4541204,7.2214069,190.45068,254.31006,21.322,282.92,-32.2678,-4.2049,24.8004,31.8393
1980-12-21 05:55:28,1,25.64,4.84,0.32,1.45685,1,1,38669.5,60468.0,1703,0.45412946,7.2214174,190.44054,254.31163,20.2866,282.332,-30.4456,0.524322,25.2663,31.5952
1980-12-21 05:56:49,1,25.84,1.92,0.68,0.711056,1,1,37512.6,74054.7,1703,0.45413852,7.2214279,190.43039,254.3132,24.2107,281.319,-20.6537,-4.39922,24.8855,34.9651
1980-12-21 05:58:10,1,25.7,-3.06,0.08,0.629285,1,1,44754.9,69843.0,1703,0.45415664,7.2214489,190.42181,254.31635,21.8985,279.904,2.10425,-4.73549,27.1818,33.9562
1980-12-21 05:59:31,1,25.1,9.0,0.24,0.402989,1,1,56151.3,63652.8,1703,0.4541657,7.2214594,190.41167,254.31792,21.112,287.587,-35.4779,-1.2114,30.4465,32.4165
1980-12-21 06:00:52,1,25.32,7.52,0.64,0.49558,1,1,38280.2,66941.6,1703,0.45417476,7.2214699,190.40154,254.3195,20.3038,283.82,-26.4001,-5.36142,25.1388,33.2434
1980-12-21 06:02:13,1,25.56,3.44,3.04,2.31931,1,1,56328.2,70990.9,1703,0.45419282,7.221489,190.38904,254.32263,21.1341,285.631,-20.3045,-9.02121,30.4944,34.2341
1980-12-21 06:03:34,1,26.1,3.48,-0.6,1.31514,1,1,51800.5,71308.3,1703,0.45420188,7.2214985,190.37889,254.3242,21.1976,284.539,-13.2388,-7.32114,29.2432,34.3106
1980-12-21 06:04:55,1,26.075,2.6,1.9,0.408503,1,1,41849.7,64216.4,1703,0.454211,7.221509,190.36874,254.32578,22.7697,280.404,-12.8407,-9.09677,26.2848,32.5597
1980-12-21 06:06:16,1,26.36,0.1,1.8,0.215407,1,1,64078.7,76325.7,1703,0.45422906,7.2215281,190.36015,254.3289,20.6758,290.972,-0.897222,-8.5483,32.5248,35.4971
1980-12-21 06:07:37,1,26.18,0.9,2.28,1.31271,1,1,76310.7,81348.7,1703,0.45423812,7.2215376,190.35001,254.33047,22.4266,292.16,8.26646,-6.9882,35.4936,36.6466
1980-12-21 06:08:58,1,25.96,-2.02,2.84,0.88227,1,1,72557.2,75811.9,1703,0.45424718,7.2215481,190.33984,254.33203,20.5197,289.937,3.34107,-13.4308,34.6097,35.3774
1980-12-21 06:10:19,1,25.8833,3.88333,1.1,0.828318,1,1,67939.5,68770.2,1703,0.4542653,7.2215672,190.33127,254.33517,24.2018,282.463,-3.15376,-8.2126,33.4903,33.6944
1980-12-21 06:11:40,1,26.12,3.62,1.2,0.468188,1,1,41216.7,60636.3,1703,0.45427436,7.2215767,190.31721,254.33675,20.5634,280.79,-11.477,-7.91987,26.0852,31.6391
1980-12-21 06:13:01,1,25.7,6.02,1.04,0.554977,1,1,45808.2,67074.7,1703,0.45429248,7.2215967,190.30862,254.33987,21.631,283.254,-20.5023,-7.91458,27.4998,33.2765
1980-12-21 06:14:22,1,25.8,3.82,1.76,1.95653,1,1,39974.7,63507.1,1703,0.45430154,7.2216063,190.29848,254.34145,20.4814,280.859,-15.5847,-9.01574,25.6892,32.3794
1980-12-21 06:15:43,1,25.6333,-6.61667,-1.85037e-17,0.577591,1,1,62258.7,66344.0,1703,0.4543106,7.2216167,190.28833,254.34302,25.3282,284.293,25.9505,-1.19007,32.0596,33.0947
1980-12-21 06:17:04,1,25.76,-5.3,2.4,0.741889,1,1,43104.9,62659.7,1703,0.45432872,7.2216358,190.27974,254.34615,19.7448,290.957,30.0406,-5.40333,26.676,32.1627
1980-12-21 06:18:25,1,25.6,-5.675,2.05,1.53928,1,1,38928.6,61868.2,1703,0.45433778,7.2216454,190.26959,254.34772,21.0331,285.195,22.4424,-14.3024,25.3508,31.9589
1980-12-21 06:19:46,1,25.12,-5.22,4.2,1.24868,1,1,36288.8,57730.6,1703,0.45434684,7.2216558,190.25554,254.34929,19.6645,285.233,8.17533,-27.6611,24.4762,30.8717
1980-12-21 06:21:07,1,26.675,0.725,0.2,1.17207,2,1,40043.0,147637.0,1703,0.45436496,7.2216749,190.24695,254.35242,20.9081,295.561,-0.984302,-15.3326,25.7111,49.3692
1980-12-21 06:22:28,1,24.6333,-8.13333,3.26667,0.875595,2,1,256105.0,182767.0,1703,0.45437402,7.2216845,190.2368,254.35399,48.9996,302.173,40.6242,-17.1927,65.023,54.9297
1980-12-21 06:23:49,-1,nan,nan,nan,nan,2,4,nan,nan,1703,0.45438308,7.2216949,190.22664,254.35555,nan,nan,nan,nan,nan,nan
1980-12-21 06:25:10,1,23.675,-11.825,1.3,0.594769,2,1,390070.0,574150.0,1703,0.4544012,7.221714,190.21806,254.35869,161.635,290.974,48.3096,-10.4864,80.247,97.3577
1980-12-21 06:26:31,-1,nan,nan,nan,nan,2,4,nan,nan,1703,0.45441025,7.2217236,190.20792,254.36026,nan,nan,nan,nan,nan,nan
1980-12-21 06:27:52,1,22.6,-13.85,0.8,0.512348,2,1,107053.0,155093.0,1703,0.45441931,7.221734,190.19385,254.36182,39.7562,308.816,45.7707,-8.35068,42.0396,50.6004
1980-12-21 06:29:13,1,20.95,-14.675,4.8,0.808934,2,1,179273.0,103990.0,1703,0.45443743,7.2217531,190.18527,254.36496,31.3149,316.459,50.2724,-14.4559,54.402,41.4338
1980-12-21 06:30:34,1,24.125,-7.125,7.65,1.88845,2,1,265950.0,205209.0,1703,0.45444649,7.2217636,190.17513,254.36653,63.5105,301.48,41.7433,-46.9246,66.261,58.2045
1980-12-21 06:31:55,-1,nan,nan,nan,nan,2,4,nan,nan,1703,0.45445555,7.2217731,190.16496,254.36809,nan,nan,nan,nan,nan,nan
1980-12-21 06:33:16,-1,nan,nan,nan,nan,2,4,nan,nan,1703,0.45447361,7.2217922,190.15639,254.37123,nan,nan,nan,nan,nan,nan
1980-12-21 06:34:37,1,26.85,-4.75,-0.3,0.324037,2,1,111208.0,234569.0,1703,0.45448267,7.2218027,190.14622,254.37279,70.6431,293.201,26.4918,7.04302,42.8476,62.229
1980-12-21 06:35:58,-1,nan,nan,nan,nan,2,4,nan,nan,1703,0.45449173,7.2218122,190.13608,254.37436,nan,nan,nan,nan,nan,nan
1980-12-21 06:37:19,-1,nan,nan,nan,nan,2,4,nan,nan,1703,0.45450985,7.2218313,190.1236,254.3775,nan,nan,nan,nan,nan,nan
1980-12-21 06:38:40,1,25.7667,-7.43333,1.93333,0.945163,2,1,163226.0,83703.9,1703,0.45451891,7.2218418,190.11343,254.37906,36.378,290.33,21.8964,-7.51127,51.9101,37.1733
1980-12-21 06:40:01,1,22.8,-13.7,-1.0,1.08321,2,1,182917.0,149869.0,1703,0.45453703,7.2218609,190.10486,254.3822,47.7377,299.429,41.1976,-2.1852,54.9522,49.7409
1980-12-21 06:41:22,1,25.7333,-7.23333,-0.466667,0.496655,2,1,138118.0,112531.0,1703,0.45454609,7.2218704,190.09471,254.38377,37.1819,295.041,44.3326,0.583472,47.751,43.1016
1980-12-21 06:42:43,1,25.725,-7.875,0.7,1.34117,2,1,73319.5,81492.7,1703,0.45455515,7.2218809,190.08455,254.38533,30.4087,287.048,3.7571,-5.97046,34.791,36.679
1980-12-21 06:44:04,1,26.0,-5.53333,1.06667,2.43402,2,1,75684.3,138011.0,1703,0.45457327,7.2219,190.07597,254.38847,28.5617,294.007,18.997,0.867599,35.3477,47.7325
1980-12-21 06:45:25,1,25.7,-6.6,2.66667,1.30213,2,1,126078.0,132295.0,1703,0.45458233,7.2219105,190.06192,254.39005,44.1295,289.887,28.9002,-6.9398,45.6223,46.7337
1980-12-21 06:46:46,-1,nan,nan,nan,nan,2,4,nan,nan,1703,0.45459139,7.22192,190.05176,254.3916,nan,nan,nan,nan,nan,nan
1980-12-21 06:48:07,1,25.8,-7.4,2.33333,0.567646,2,1,181941.0,157419.0,1703,0.45460951,7.2219391,190.04318,254.39474,57.2581,297.068,27.0626,-27.3922,54.8054,50.9784
1980-12-21 06:49:28,1,24.6667,-9.6,3.46667,0.819214,2,1,105593.0,105804.0,1703,0.45461857,7.2219496,190.03302,254.3963,34.4539,284.989,31.9998,-13.1382,41.7519,41.7936
1980-12-21 06:50:49,1,25.9333,-5.6,3.4,0.628932,2,1,95205.8,213247.0,1703,0.45462763,7.2219591,190.02287,254.39787,52.389,287.348,-1.31391,-16.5782,39.6451,59.3334
1980-12-21 06:52:10,1,25.425,-5.075,5.35,1.81556,2,1,113456.0,97964.1,1703,0.45464575,7.2219782,190.0143,254.40102,34.3815,284.282,6.14697,-6.46855,43.2784,40.2153
1980-12-21 06:53:31,1,27.0,-3.6,-0.8,0.454606,2,1,399774.0,195477.0,1703,0.45465481,7.2219887,190.00023,254.40257,71.1735,275.597,16.8446,4.76594,81.2391,56.8075
1980-12-21 06:54:52,1,26.775,-3.675,1.15,1.20675,2,1,89456.2,122908.0,1703,0.45466387,7.2219982,189.99008,254.40414,39.7012,283.836,10.7928,-16.2253,38.4293,45.0452
1980-12-21 06:56:13,-1,nan,nan,nan,nan,2,4,nan,nan,1703,0.45468199,7.2220173,189.98151,254.40729,nan,nan,nan,nan,nan,nan
1980-12-21 06:57:34,-1,nan,nan,nan,nan,2,4,nan,nan,1703,0.45469105,7.2220278,189.97134,254.40884,nan,nan,nan,nan,nan,nan
1980-12-21 06:58:55,-1,nan,nan,nan,nan,2,4,nan,nan,1703,0.45470011,7.2220373,189.9612,254.41042,nan,nan,nan,nan,nan,nan
1980-12-21 07:00:16,1,24.8333,10.7,-5.53333,0.705534,2,1,55397.3,77013.0,1703,0.45471823,7.2220573,189.95262,254.41356,34.6313,279.358,-27.2193,3.456,30.2414,35.6566
1980-12-21 07:01:37,1,17.4333,19.6333,-7.0,0.881917,2,1,32152.1,94356.8,1703,0.45472729,7.2220659,189.94246,254.41512,24.2244,304.21,-61.0347,18.4964,23.0389,39.4679
1980-12-21 07:02:58,1,19.8333,19.5667,-4.0,0.413656,2,1,59438.2,60199.2,1703,0.45473635,7.2220755,189.92839,254.41667,24.047,305.851,-65.4257,6.82934,31.325,31.5249
1980-12-21 07:04:19,1,16.375,22.275,-1.4,0.921276,2,1,115003.0,81762.7,1703,0.45475447,7.2220936,189.9198,254.4198,23.0778,295.111,-53.2641,30.8001,43.5724,36.7397
1980-12-21 07:05:40,1,15.5,23.55,-3.2,0.807775,2,1,36609.0,30676.3,1703,0.45476353,7.2221022,189.90964,254.42136,15.6817,330.621,-82.724,8.67699,24.584,22.504
1980-12-21 07:07:01,1,17.9667,21.2,-0.466667,2.373,2,1,41606.0,35778.3,1703,0.45478165,7.2221203,189.90105,254.42448,16.2139,303.755,-62.241,-8.6145,26.2081,24.3034
1980-12-21 07:08:22,-1,nan,nan,nan,nan,1,4,nan,nan,1703,0.45479071,7.2221298,189.8909,254.42606,nan,nan,nan,nan,nan,nan
1980-12-21 07:09:43,-1,nan,nan,nan,nan,1,4,nan,nan,1703,0.45479977,7.2221384,189.88074,254.42761,nan,nan,nan,nan,nan,nan
1980-12-21 07:11:04,1,13.9167,24.8167,0.5,1.37941,1,1,43974.3,65342.6,1703,0.45481789,7.2221575,189.86824,254.43074,24.0094,317.261,-78.1222,-2.18784,26.9437,32.844
1980-12-21 07:12:25,1,12.1167,26.0167,0.233333,1.02062,1,1,52870.5,58578.3,1703,0.45482695,7.2221661,189.85808,254.4323,24.4289,330.444,-89.9011,2.14156,29.5437,31.0975
1980-12-21 07:13:46,1,11.9,26.1333,1.7,0.76956,1,1,45931.5,59289.8,1703,0.45483601,7.2221756,189.84793,254.43387,24.9295,328.923,-88.0744,-1.99493,27.5368,31.2858
1980-12-21 07:15:07,1,11.6,23.9833,6.13333,2.17032,1,1,52680.8,66745.1,1703,0.45485413,7.2221937,189.83932,254.43698,23.7551,341.166,-91.6099,-24.3287,29.4906,33.1946
1980-12-21 07:16:28,1,17.05,21.7833,4.0,0.940154,1,1,44180.7,53096.0,1703,0.45486319,7.2222023,189.82918,254.43855,22.9246,318.882,-78.3871,-22.3393,27.0069,29.6066
1980-12-21 07:17:49,1,17.7333,21.3833,3.53333,1.15,1,1,43534.4,62170.5,1703,0.45487225,7.2222118,189.81902,254.44011,25.3561,311.734,-74.9542,-11.9527,26.8086,32.0369
1980-12-21 07:19:10,1,22.68,15.1,4.52,1.4308,1,1,41195.6,49470.9,1703,0.45489037,7.22223,189.80652,254.44324,18.3087,290.557,-47.978,-16.72,26.0785,28.5781
1980-12-21 07:20:31,-1,nan,nan,nan,nan,1,4,nan,nan,1703,0.45489943,7.2222395,189.79636,254.44479,nan,nan,nan,nan,nan,nan
1980-12-21 07:21:52,-1,nan,nan,nan,nan,1,4,nan,nan,1703,0.45490849,7.2222481,189.78621,254.44637,nan,nan,nan,nan,nan,nan
1980-12-21 07:23:13,1,24.0,13.8,2.06667,1.16714,2,1,48619.9,81596.8,1703,0.45492661,7.2222662,189.7776,254.44948,31.8461,282.828,-27.6915,-23.1031,28.3312,36.7024
1980-12-21 07:24:34,1,25.0,12.2333,1.53333,1.84331,2,1,57963.6,54243.8,1703,0.45493567,7.2222757,189.76746,254.45105,26.6953,280.511,-37.1756,-18.6491,30.934,29.9249
1980-12-21 07:25:55,1,26.1,10.1,0.0666667,0.805536,2,1,43836.4,76515.3,1703,0.45494473,7.2222843,189.75729,254.45261,30.6521,288.17,-34.6727,-5.22766,26.9014,35.5412
1980-12-21 07:33:14,-1,nan,nan,nan,nan,2,4,nan,nan,1703,0.45501721,7.2223577,189.70338,254.4651,nan,nan,nan,nan,nan,nan
1980-12-21 07:35:56,1,27.55,-5.35,-3.1,2.21698,2,1,54500.3,54370.2,1703,0.45503533,7.2223759,189.67917,254.46823,28.6957,285.44,-40.4256,-0.906798,29.9956,29.9598
1980-12-21 07:38:04,-1,nan,nan,nan,nan,2,4,nan,nan,1703,0.45313433,7.2479715,189.10858,253.91718,nan,nan,nan,nan,nan,nan
1980-12-21 07:38:38,1,25.5,6.25,7.7,1.69779,2,1,65993.7,55716.2,1703,0.45506251,7.2224026,189.66042,254.47292,27.6571,278.354,-26.856,0.644158,33.0072,30.3283
1980-12-21 07:40:47,1,27.0,5.0,6.8,0.447214,2,1,71767.7,91704.9,1703,0.45508063,7.2224216,189.64401,254.47604,45.0066,280.277,-20.4631,-28.4764,34.4209,38.9094
1980-12-21 07:43:29,1,27.9,1.7,5.2,0.0,2,1,49172.0,71117.8,1703,0.45510781,7.2224483,189.62526,254.48073,27.4328,281.815,2.63359,-16.918,28.4916,34.2647
1980-12-21 07:46:11,1,27.4,6.8,5.6,0.2,2,1,77025.2,66230.3,1703,0.45513499,7.222476,189.6026,254.48541,32.2223,281.531,-17.8946,-42.3932,35.6594,33.0664
1980-12-21 07:48:53,1,23.9,8.3,11.2,0.87178,2,1,73628.9,76654.1,1703,0.45515311,7.2224941,189.58229,254.48854,28.4286,301.277,-40.7171,-48.8951,34.8644,35.5734
1980-12-21 07:59:41,1,27.95,1.15,-9.4,0.494975,2,1,129988.0,171506.0,1703,0.45525277,7.2225943,189.50182,254.50572,47.8121,277.093,-5.27161,19.5767,46.3243,53.2105
1980-12-21 08:02:23,-1,nan,nan,nan,nan,1,4,nan,nan,1703,0.45527995,7.22262,189.47916,254.51041,nan,nan,nan,nan,nan,nan
1980-12-21 08:05:05,-1,nan,nan,nan,nan,1,4,nan,nan,1703,0.45530713,7.2226448,189.46039,254.51508,nan,nan,nan,nan,nan,nan
1980-12-21 08:07:47,-1,nan,nan,nan,nan,1,4,nan,nan,1703,0.45532525,7.222662,189.44006,254.51819,nan,nan,nan,nan,nan,nan
1980-12-21 08:10:29,1,27.5,4.7,1.6,0.0,1,1,65627.6,80529.9,1703,0.45535243,7.2226868,189.41739,254.52286,25.1734,284.831,-27.4101,7.05841,32.9155,36.4617
1980-12-21 08:13:11,1,25.65,5.85,-10.0,0.951315,1,1,59425.6,60525.2,1703,0.45537961,7.2227116,189.39862,254.52753,22.0494,281.406,-28.5473,31.2478,31.3217,31.6101
1980-12-21 08:15:53,1,24.5,10.85,-10.4,0.65,1,1,64755.7,96777.7,1703,0.45539773,7.2227287,189.3783,254.53064,25.4759,288.955,-41.3811,34.3342,32.6962,39.971
1980-12-21 08:18:35,1,22.55,8.75,-15.1,1.94808,1,1,100323.0,60561.4,1703,0.4554249,7.2227535,189.35562,254.53531,18.8145,299.13,-55.1504,40.6611,40.6965,31.6196
1980-12-21 08:21:17,-1,nan,nan,nan,nan,2,4,nan,nan,1703,0.45545208,7.2227793,189.33685,254.53998,nan,nan,nan,nan,nan,nan
1980-12-21 08:23:59,1,24.8,4.3,-15.6,0.0,2,1,153066.0,287630.0,1703,0.4554702,7.2227955,189.31653,254.54309,90.4078,276.374,-24.4123,32.2888,50.2686,68.9088
1980-12-21 08:29:23,-1,nan,nan,nan,nan,2,4,nan,nan,1703,0.45552462,7.222846,189.27509,254.55243,nan,nan,nan,nan,nan,nan
1980-12-21 08:32:02,-1,nan,nan,nan,nan,2,3,nan,nan,1703,0.4555518,7.2228708,189.25632,254.5571,nan,282.048,-34.908,42.0177,nan,nan
1980-12-21 08:34:44,1,27.05,8.25,-8.0,0.790569,2,1,72032.2,60552.5,1703,0.45556992,7.222888,189.23599,254.56021,28.2768,278.081,-36.7167,11.6193,34.4843,31.6172
1980-12-21 08:37:26,-1,nan,nan,nan,nan,2,4,nan,nan,1703,0.4555971,7.2229128,189.21332,254.56488,nan,nan,nan,nan,nan,nan
1980-12-21 08:40:08,1,27.45,4.25,-9.0,0.764853,2,1,60054.0,74488.8,1703,0.45562428,7.2229376,189.19455,254.56955,29.8865,274.363,-27.7572,7.99901,31.4868,35.0674
1980-12-21 08:42:53,1,27.3,5.5,-10.0,0.374166,2,1,57831.9,93389.6,1703,0.4556424,7.2229548,189.17422,254.57266,34.2235,275.925,-28.753,15.2696,30.8988,39.2651
1980-12-21 08:45:35,1,28.2,7.3,-0.2,0.0,2,1,61464.8,122874.0,1703,0.45566958,7.2229795,189.15155,254.57733,29.7348,283.74,-43.9077,10.7128,31.8545,45.0389
1980-12-21 08:48:17,1,28.1,7.55,-5.9,0.287228,2,1,82937.4,149991.0,1703,0.45569676,7.2230043,189.13278,254.582,44.8446,271.243,-23.7698,7.94641,37.0027,49.7612
1980-12-21 08:50:59,1,28.25,6.5,-4.5,0.502494,2,1,305678.0,153361.0,1703,0.45571488,7.2230215,189.11246,254.58511,67.4735,268.699,-39.899,21.27,71.0379,50.317
1980-12-21 08:53:41,1,26.35,12.3,-7.6,2.14534,2,1,112699.0,103128.0,1703,0.45574206,7.2230463,189.08978,254.58978,35.6109,278.234,-28.4498,7.66898,43.1338,41.2617
1980-12-21 08:56:23,-1,nan,nan,nan,nan,2,4,nan,nan,1703,0.45576924,7.2230711,189.07101,254.59445,nan,nan,nan,nan,nan,nan
1980-12-21 08:59:05,1,29.1,3.95,-0.6,0.269258,2,1,58089.8,74606.5,1703,0.45579642,7.2230968,189.05225,254.59912,25.8142,282.121,-2.74795,-17.8648,30.9676,35.0951
1980-12-21 09:01:47,-1,nan,nan,nan,nan,2,4,nan,nan,1703,0.4558146,7.2231131,189.02802,254.60223,nan,nan,nan,nan,nan,nan
1980-12-21 09:04:29,1,28.3,1.8,-8.6,0.0,2,1,117219.0,220746.0,1703,0.45584178,7.2231359,189.00923,254.60689,60.4463,275.274,-15.6109,-7.47773,43.9903,60.3677
1980-12-21 09:07:11,-1,nan,nan,nan,nan,1,4,nan,nan,1703,0.45586896,7.2231588,188.99045,254.61154,nan,nan,nan,nan,nan,nan
1980-12-21 09:09:53,-1,nan,nan,nan,nan,1,4,nan,nan,1703,0.45588708,7.2231741,188.96622,254.61465,nan,nan,nan,nan,nan,nan
1980-12-21 09:12:35,1,28.75,2.35,-7.4,0.380789,1,1,58153.0,76323.7,1703,0.45591426,7.223197,188.94743,254.61931,22.2467,277.358,-12.0324,21.9399,30.9845,35.4967
1980-12-21 09:15:17,1,28.2333,1.7,-8.8,0.471405,1,1,60359.3,80331.8,1703,0.45594144,7.2232208,188.92865,254.62396,23.2676,277.273,-11.2843,34.3288,31.5667,36.4168